Zurück zum Katalog

USA 335

AktivMilitärVLEO
NORAD 53352·PAYLOAD·🇺🇸 United States

Gestartet Aug 4, 2022 von Rocket Lab Launch Complex 1

Loading…

Nächste Überflüge (nächste 24 Stunden)

TLE

VeraltetSource: Mike McCants

Epoche: Oct 22, 2024, 18:22 UTC

1 53352U 22091A   24296.76552711 0.00066500  00000-0  37376-2 0    07
2 53352  70.0128 158.2452 0003780 231.4901 128.5099 15.13172950    01

Verfolge USA 335 in Echtzeit mit AllMySat

Download on the App Store